Regional Weather Roundup
Issued by NWS

Home | Current Version | Previous Version | Graphics & Text | Print | Product List | Glossary Off
Versions: 1 2 3 4 5 6 7 8 9 10 11 12 13 14 15 16 17 18 19 20 21 22 23 24 25 26 27 28 29 30 31 32 33 34 35 36 37 38 39 40 41 42 43 44 45 46 47 48 49 50

000
ASUS43 KMKX 290500
RWRWI

WISCONSIN REGIONAL WEATHER ROUNDUP
NATIONAL WEATHER SERVICE MILWAUKEE/SULLIVAN WI
1200 AM CDT FRI APR 29 2016

NOTE: "FAIR" INDICATES FEW OR NO CLOUDS BELOW 12,000 FEET WITH NO
SIGNIFICANT WEATHER AND/OR OBSTRUCTIONS TO VISIBILITY.

WIZ001-002-006>008-014>016-023>028-290600-
NORTHWEST WISCONSIN

CITY           SKY/WX    TMP DP  RH WIND       PRES   REMARKS
SUPERIOR ARPT  CLOUDY    34  31  88 E3        30.16S
ASHLAND        CLOUDY    32  29  88 N5        30.13S WCI  27
HAYWARD        PTCLDY    34  28  79 CALM      30.12S
SIREN          CLOUDY    39  26  59 NE6       30.13S WCI  35
CUMBERLAND     CLOUDY    37  36  93 W3        30.11S
RICE LAKE      CLOUDY    41  36  84 W3        30.13S
CHETEK         CLOUDY    40  37  89 CALM      30.11S
LADYSMITH      CLOUDY    42  36  79 SW3       30.12R
EAU CLAIRE     LGT RAIN  39  37  93 CALM      30.11S
MENOMONIE      DRIZZLE   39  39  99 S6        30.11F WCI  35
NEW RICHMOND   CLOUDY    39  39  99 CALM      30.13S
OSCEOLA        CLOUDY    40  40 100 CALM      30.16S
$$

WIZ003>005-009-010-017-018-290600-
NORTH CENTRAL WISCONSIN

CITY           SKY/WX    TMP DP  RH WIND       PRES   REMARKS
MANITOWISH WTR MOCLDY    38  24  57 NE5       30.08S WCI  35
ARBOR VITAE    CLOUDY    43  28  55 CALM      30.08R
WOODRUFF       CLOUDY    43  28  55 CALM      30.08R
RHINELANDER    LGT RAIN  38  35  89 SE6       30.11S WCI  33
EAGLE RIVER    MOCLDY    41  30  65 S9        30.09R
LAND O LAKES   CLOUDY    40  24  52 E3        30.10S
PHILLIPS       CLOUDY    41  33  73 SW8       30.08S
TOMAHAWK       LGT RAIN  37  35  90 SE3       30.12R
MEDFORD        DRIZZLE   37  36  98 CALM      30.10R
MERRILL        DRIZZLE   38  37  97 CALM      30.12R
$$

WIZ029-030-035-036-043>047-290600-
CENTRAL WISCONSIN

CITY           SKY/WX    TMP DP  RH WIND       PRES   REMARKS
WAUSAU         LGT RAIN  39  35  86 NE5       30.09R
MOSINEE        DRIZZLE   36  36 100 NE7       30.10S WCI  30
MARSHFIELD     CLOUDY    38  35  89 NE8       30.08S WCI  32
STEVENS POINT  DRIZZLE   35  34  97 NE6       30.10R WCI  30
WAUPACA        CLOUDY    41  35  79 N7        30.08S
WAUTOMA        CLOUDY    39  34  81 N6        30.07F WCI  35
WISC RAPIDS    CLOUDY    38  34  85 NE8       30.09F WCI  32
CAMP DOUGLAS   NOT AVBL
$$

WIZ011>013-019>022-031-037>040-048>050-290600-
NORTHEAST WISCONSIN

CITY           SKY/WX    TMP DP  RH WIND       PRES   REMARKS
ANTIGO         DRIZZLE   35  35  98 CALM      30.10S
SHAWANO        LGT RAIN  41  37  85 N7        30.09S
OCONTO         CLOUDY    42  31  65 NE3       30.09R
STURGEON BAY   CLOUDY    43  30  61 SE6       30.11R
GREEN BAY      LGT RAIN  42  33  70 N8        30.07S
MANITOWOC      NOT AVBL
APPLETON       DRIZZLE   37  32  81 N10       30.05F WCI  30
CLINTONVILLE   CLOUDY    39  34  81 N6        30.08F WCI  35
OSHKOSH        CLOUDY    43  32  65 N8        30.06S
$$

WIZ032>034-041-042-053>061-290600-
SOUTHWEST WISCONSIN

CITY           SKY/WX    TMP DP  RH WIND       PRES   REMARKS
LA CROSSE      CLOUDY    41  36  82 N5        30.09F
SPARTA         CLOUDY    38  37  98 CALM      30.09F
VIROQUA        CLOUDY    38  38 100 NE6       30.07R WCI  33
BOSCOBEL       LGT RAIN  42  40  92 N3        30.07S FOG
PRAIRIE DU CHI CLOUDY    42  38  86 CALM      30.07R
PLATTEVILLE    CLOUDY    40  40  97 NE7       30.04R
$$

WIZ056-057-062-063-064-067-068-290600-
SOUTH CENTRAL WISCONSIN

CITY           SKY/WX    TMP DP  RH WIND       PRES   REMARKS
REEDSBURG      CLOUDY    38  37  95 CALM      30.06S
BARABOO/DELLS  RAIN      38  37  97 NE3       30.06S
LONE ROCK      NOT AVBL
MINERAL POINT  CLOUDY    41  39  93 NE5       30.04S
MADISON        CLOUDY    39  38  96 NE6       30.05S WCI  35
MIDDLETON      CLOUDY    40  39  94 NE3       30.05S
WATERTOWN      DRIZZLE   39  39 100 NE3       30.04F
MONROE         CLOUDY    37  37 100 NE8       30.02F FOG     WCI  31
JANESVILLE     CLOUDY    41  39  93 NE5       30.03S
$$

WIZ051-052-058>065-066-070>072-290600-
SOUTHEAST WISCONSIN

CITY           SKY/WX    TMP DP  RH WIND       PRES   REMARKS
MILWAUKEE      DRIZZLE   40  38  93 NE8       30.04S FOG     WCI  34
WAUKESHA       DRIZZLE   37  36  93 NE7       30.05S WCI  32
MILWAUKEE/TIMM CLOUDY    37  36  93 NE5       30.05S FOG     WCI  34
RACINE         LGT RAIN  41  39  93 N6        30.05R FOG
BURLINGTON     MIX PCPN  39  38  99 NE6       30.02F WCI  35
KENOSHA        LGT RAIN  41  39  93 NE6       30.03R FOG
FOND DU LAC    CLOUDY    41  38  89 CALM      30.06S
SHEBOYGAN      CLOUDY    41  34  76 NE9       30.05F
WEST BEND      CLOUDY    39  34  81 NE6       30.04F WCI  35
JUNEAU         CLOUDY    38  37  96 N3        30.06S
$$

LSZ147-162-290600-
LAKE SUPERIOR

STATION/POSITION TIME  TEMP    WIND        PRES    WAVE
                       AIR SEA DIR/SP/G            HT/PER
                 (UTC) (F)     (DEG/KT/KT) (MB)    (FT/S)
W MID LAKE BUOY  0350   37 36   50/  8/ 10 1021.6R   2/ 5
DEVILS ISLAND    0400   37      20/  9/ 10 1021.6F
SAXON HARBOR     0400   32     190/  3/  4 1019.6R
$$

LMZ867-665-643>646-290600-
LAKE MICHIGAN

STATION/POSITION TIME  TEMP    WIND        PRES    WAVE
                       AIR SEA DIR/SP/G            HT/PER
                 (UTC) (F)     (DEG/KT/KT) (MB)    (FT/S)
CHAMBERS ISLAND  0400   41      20/  4/  5 1019.3S
N MID LAKE BUOY  0350   39 38   40/  6/  6 1019.0R   1/ 3
NORTHPORT PIER   0400   41      30/  5/  6 1019.0R
ALGOMA LAKESHORE 0415          110/  8/ 10   N/A
KEWAUNEE LAKESHO 0400   41      50/  4/  7 1017.8R
SHEBOYGAN LAKESH 0400   41      30/  9/ 11 1018.7R
PORT WASHINGTON  0400   42      30/  5/  8 1018.6
S MID LAKE BUOY  0350   41 40   80/ 10/ 12 1016.5R   2/ 4
KENOSHA   LAKESH 0400   41      30/ 10/ 12 1016.6F
$$

TC  - TEMPERATURE IN CELSIUS
VSB - VISIBILITY IN STATUTE MILES
WCI - WIND CHILL INDEX
HX  - HEAT INDEX




USA.gov is the U.S. government's official web portal to all federal, state and local government web resources and services.